Time,TemperatureF,DewpointF,PressureIn,WindDirection,WindDirectionDegrees,WindSpeedMPH,WindSpeedGustMPH,Humidity,HourlyPrecipIn,Conditions,Clouds,dailyrainin,SoftwareType,DateUTC
2013-04-28 00:01:00,74.4,65.4,30.38,SSE,157,0.0,0.0,73,0.00,,,0.00,WUHU21623XXSP,2013-04-28 04:01:00,
2013-04-28 00:02:00,74.4,65.4,30.38,SSE,157,0.0,0.0,73,0.00,,,0.00,WUHU21623XXSP,2013-04-28 04:02:00,
2013-04-28 00:07:00,74.2,65.5,30.37,East,90,0.0,0.0,74,0.00,,,0.00,WUHU21623XXSP,2013-04-28 04:07:00,
2013-04-28 00:12:00,74.0,65.3,30.37,ESE,112,0.0,0.0,74,0.00,,,0.00,WUHU21623XXSP,2013-04-28 04:12:00,
2013-04-28 00:17:00,74.0,65.7,30.37,ESE,112,0.0,0.0,75,0.00,,,0.00,WUHU21623XXSP,2013-04-28 04:17:00,
2013-04-28 00:22:00,74.0,65.7,30.37,East,90,0.0,0.0,75,0.00,,,0.00,WUHU21623XXSP,2013-04-28 04:22:00,
2013-04-28 00:27:00,73.8,65.5,30.37,SE,135,0.0,0.0,75,0.00,,,0.00,WUHU21623XXSP,2013-04-28 04:27:00,
2013-04-28 00:32:00,73.7,65.4,30.37,ESE,112,0.0,0.0,75,0.00,,,0.00,WUHU21623XXSP,2013-04-28 04:32:00,
2013-04-28 00:37:00,73.5,65.2,30.37,SE,135,0.0,0.0,75,0.00,,,0.00,WUHU21623XXSP,2013-04-28 04:37:00,
2013-04-28 00:42:00,73.3,65.0,30.37,SE,135,0.0,0.0,75,0.00,,,0.00,WUHU21623XXSP,2013-04-28 04:42:00,
2013-04-28 00:47:00,73.1,65.2,30.37,ESE,112,0.0,0.0,76,0.00,,,0.00,WUHU21623XXSP,2013-04-28 04:47:00,
2013-04-28 00:52:00,73.1,65.2,30.37,ESE,112,0.0,0.0,76,0.00,,,0.00,WUHU21623XXSP,2013-04-28 04:52:00,
2013-04-28 00:57:00,72.9,65.0,30.37,ESE,112,0.0,0.0,76,0.00,,,0.00,WUHU21623XXSP,2013-04-28 04:57:00,
2013-04-28 01:02:00,72.9,65.4,30.37,ESE,112,0.0,0.0,77,0.00,,,0.00,WUHU21623XXSP,2013-04-28 05:02:00,
2013-04-28 01:07:00,72.8,65.3,30.37,SE,135,0.0,0.0,77,0.00,,,0.00,WUHU21623XXSP,2013-04-28 05:07:00,
2013-04-28 01:12:00,72.8,65.3,30.37,ESE,112,0.0,0.0,77,0.00,,,0.00,WUHU21623XXSP,2013-04-28 05:12:00,
2013-04-28 01:17:00,72.6,65.1,30.37,ESE,112,0.0,0.0,77,0.00,,,0.00,WUHU21623XXSP,2013-04-28 05:17:00,
2013-04-28 01:22:00,72.6,65.1,30.37,ESE,112,0.0,0.0,77,0.00,,,0.00,WUHU21623XXSP,2013-04-28 05:22:00,
2013-04-28 01:27:00,72.4,64.9,30.36,SSE,157,0.0,0.0,77,0.00,,,0.00,WUHU21623XXSP,2013-04-28 05:27:00,
2013-04-28 01:32:00,72.2,64.7,30.36,SE,135,0.0,0.0,77,0.00,,,0.00,WUHU21623XXSP,2013-04-28 05:32:00,
2013-04-28 01:37:00,72.2,65.1,30.35,SE,135,0.0,0.0,78,0.00,,,0.00,WUHU21623XXSP,2013-04-28 05:37:00,
2013-04-28 01:42:00,72.2,65.1,30.35,ESE,112,0.0,0.0,78,0.00,,,0.00,WUHU21623XXSP,2013-04-28 05:42:00,
2013-04-28 01:47:00,72.0,64.9,30.35,SSE,157,0.0,0.0,78,0.00,,,0.00,WUHU21623XXSP,2013-04-28 05:47:00,
2013-04-28 01:52:00,72.0,65.2,30.35,ESE,112,0.0,0.0,79,0.00,,,0.00,WUHU21623XXSP,2013-04-28 05:52:00,
2013-04-28 01:58:00,72.0,65.2,30.35,East,90,0.0,0.0,79,0.00,,,0.00,WUHU21623XXSP,2013-04-28 05:58:00,
2013-04-28 02:03:00,72.0,65.2,30.35,ESE,112,0.0,0.0,79,0.00,,,0.00,WUHU21623XXSP,2013-04-28 06:03:00,
2013-04-28 02:08:00,72.0,65.2,30.35,SSE,157,0.0,0.0,79,0.00,,,0.00,WUHU21623XXSP,2013-04-28 06:08:00,
2013-04-28 02:13:00,71.9,65.1,30.35,SE,135,0.0,0.0,79,0.00,,,0.00,WUHU21623XXSP,2013-04-28 06:13:00,
2013-04-28 02:18:00,71.7,64.9,30.34,SE,135,0.0,0.0,79,0.00,,,0.00,WUHU21623XXSP,2013-04-28 06:18:00,
2013-04-28 02:23:00,71.7,64.9,30.34,ESE,112,0.0,0.0,79,0.00,,,0.00,WUHU21623XXSP,2013-04-28 06:23:00,
2013-04-28 02:28:00,71.7,64.9,30.35,East,90,0.0,0.0,79,0.00,,,0.00,WUHU21623XXSP,2013-04-28 06:28:00,
2013-04-28 02:33:00,71.7,64.9,30.34,SE,135,0.0,0.0,79,0.00,,,0.00,WUHU21623XXSP,2013-04-28 06:33:00,
2013-04-28 02:38:00,71.7,64.9,30.34,ESE,112,0.0,0.0,79,0.00,,,0.00,WUHU21623XXSP,2013-04-28 06:38:00,
2013-04-28 02:43:00,71.7,64.9,30.34,SE,135,0.0,0.0,79,0.00,,,0.00,WUHU21623XXSP,2013-04-28 06:43:00,
2013-04-28 02:48:00,71.5,64.7,30.34,ESE,112,0.0,0.0,79,0.00,,,0.00,WUHU21623XXSP,2013-04-28 06:48:00,
2013-04-28 02:53:00,71.5,64.7,30.34,SE,135,0.0,0.0,79,0.00,,,0.00,WUHU21623XXSP,2013-04-28 06:53:00,
2013-04-28 02:58:00,71.5,64.7,30.34,SE,135,0.0,0.0,79,0.00,,,0.00,WUHU21623XXSP,2013-04-28 06:58:00,
2013-04-28 03:03:00,71.3,64.5,30.34,East,90,0.0,0.0,79,0.00,,,0.00,WUHU21623XXSP,2013-04-28 07:03:00,
2013-04-28 03:08:00,71.3,64.5,30.34,ESE,112,0.0,0.0,79,0.00,,,0.00,WUHU21623XXSP,2013-04-28 07:08:00,
2013-04-28 03:13:00,71.3,64.5,30.33,SE,135,0.0,0.0,79,0.00,,,0.00,WUHU21623XXSP,2013-04-28 07:13:00,
2013-04-28 03:18:00,71.3,64.5,30.32,ENE,67,0.0,0.0,79,0.00,,,0.00,WUHU21623XXSP,2013-04-28 07:18:00,
2013-04-28 03:23:00,71.1,64.4,30.32,ESE,112,0.0,0.0,79,0.00,,,0.00,WUHU21623XXSP,2013-04-28 07:23:00,
2013-04-28 03:28:00,71.1,64.4,30.32,South,180,0.0,0.0,79,0.00,,,0.00,WUHU21623XXSP,2013-04-28 07:28:00,
2013-04-28 03:33:00,71.0,64.6,30.32,ESE,112,0.0,0.0,80,0.00,,,0.00,WUHU21623XXSP,2013-04-28 07:33:00,
2013-04-28 03:38:00,71.0,64.6,30.32,ESE,112,0.0,0.0,80,0.00,,,0.00,WUHU21623XXSP,2013-04-28 07:38:00,
2013-04-28 03:43:00,70.8,64.4,30.31,SSE,157,0.0,0.0,80,0.00,,,0.00,WUHU21623XXSP,2013-04-28 07:43:00,
2013-04-28 03:48:00,70.8,64.4,30.31,ESE,112,0.0,0.0,80,0.00,,,0.00,WUHU21623XXSP,2013-04-28 07:48:00,
2013-04-28 03:53:00,70.6,64.2,30.31,SE,135,0.0,0.0,80,0.00,,,0.00,WUHU21623XXSP,2013-04-28 07:53:00,
2013-04-28 03:58:00,70.4,64.0,30.31,SE,135,0.0,0.0,80,0.00,,,0.00,WUHU21623XXSP,2013-04-28 07:58:00,
2013-04-28 04:03:00,70.4,63.7,30.32,SE,135,0.0,0.0,79,0.00,,,0.00,WUHU21623XXSP,2013-04-28 08:03:00,
2013-04-28 04:09:00,70.4,64.0,30.32,East,90,0.0,0.0,80,0.00,,,0.00,WUHU21623XXSP,2013-04-28 08:09:00,
2013-04-28 04:14:00,70.4,64.0,30.32,SE,135,0.0,0.0,80,0.00,,,0.00,WUHU21623XXSP,2013-04-28 08:14:00,
2013-04-28 04:19:00,70.4,64.0,30.31,ENE,67,0.0,0.0,80,0.00,,,0.00,WUHU21623XXSP,2013-04-28 08:19:00,
2013-04-28 04:24:00,70.4,64.4,30.31,SE,135,0.0,0.0,81,0.00,,,0.00,WUHU21623XXSP,2013-04-28 08:24:00,
2013-04-28 04:29:00,70.2,64.2,30.31,SE,135,0.0,0.0,81,0.00,,,0.00,WUHU21623XXSP,2013-04-28 08:29:00,
2013-04-28 04:34:00,70.2,64.2,30.31,ENE,67,0.0,0.0,81,0.00,,,0.00,WUHU21623XXSP,2013-04-28 08:34:00,
2013-04-28 04:39:00,70.2,64.2,30.32,East,90,0.0,0.0,81,0.00,,,0.00,WUHU21623XXSP,2013-04-28 08:39:00,
2013-04-28 04:44:00,70.2,64.2,30.32,SSE,157,0.0,0.0,81,0.00,,,0.00,WUHU21623XXSP,2013-04-28 08:44:00,
2013-04-28 04:49:00,70.2,64.2,30.32,ESE,112,0.0,0.0,81,0.00,,,0.00,WUHU21623XXSP,2013-04-28 08:49:00,
2013-04-28 04:54:00,70.2,64.2,30.31,NE,45,0.0,0.0,81,0.00,,,0.00,WUHU21623XXSP,2013-04-28 08:54:00,
2013-04-28 04:59:00,70.1,64.1,30.31,SSE,157,0.0,0.0,81,0.00,,,0.00,WUHU21623XXSP,2013-04-28 08:59:00,
2013-04-28 05:04:00,69.9,63.9,30.32,SE,135,0.0,0.0,81,0.00,,,0.00,WUHU21623XXSP,2013-04-28 09:04:00,
2013-04-28 05:09:00,69.9,63.9,30.31,South,180,0.0,0.0,81,0.00,,,0.00,WUHU21623XXSP,2013-04-28 09:09:00,
2013-04-28 05:14:00,69.7,63.7,30.31,SE,135,0.0,0.0,81,0.00,,,0.00,WUHU21623XXSP,2013-04-28 09:14:00,
2013-04-28 05:19:00,69.7,63.7,30.31,SE,135,0.0,0.0,81,0.00,,,0.00,WUHU21623XXSP,2013-04-28 09:19:00,
2013-04-28 05:24:00,69.7,63.7,30.31,SE,135,0.0,0.0,81,0.00,,,0.00,WUHU21623XXSP,2013-04-28 09:24:00,
2013-04-28 05:29:00,69.5,63.5,30.31,SE,135,0.0,0.0,81,0.00,,,0.00,WUHU21623XXSP,2013-04-28 09:29:00,
2013-04-28 05:34:00,69.5,63.5,30.31,ESE,112,0.0,0.0,81,0.00,,,0.00,WUHU21623XXSP,2013-04-28 09:34:00,
2013-04-28 05:39:00,69.5,63.5,30.31,ENE,67,0.0,0.0,81,0.00,,,0.00,WUHU21623XXSP,2013-04-28 09:39:00,
2013-04-28 05:44:00,69.5,63.5,30.31,SE,135,0.0,0.0,81,0.00,,,0.00,WUHU21623XXSP,2013-04-28 09:44:00,
2013-04-28 05:49:00,69.3,63.6,30.30,SSE,157,0.0,0.0,82,0.00,,,0.00,WUHU21623XXSP,2013-04-28 09:49:00,
2013-04-28 05:55:00,69.3,63.6,30.31,East,90,0.0,0.0,82,0.00,,,0.00,WUHU21623XXSP,2013-04-28 09:55:00,
2013-04-28 06:00:00,69.3,63.6,30.30,SE,135,0.0,0.0,82,0.00,,,0.00,WUHU21623XXSP,2013-04-28 10:00:00,
2013-04-28 06:05:00,69.2,63.5,30.31,ESE,112,0.0,0.0,82,0.00,,,0.00,WUHU21623XXSP,2013-04-28 10:05:00,
2013-04-28 06:10:00,69.0,63.3,30.31,ESE,112,0.0,0.0,82,0.00,,,0.00,WUHU21623XXSP,2013-04-28 10:10:00,
2013-04-28 06:15:00,68.8,63.1,30.31,ESE,112,0.0,0.0,82,0.00,,,0.00,WUHU21623XXSP,2013-04-28 10:15:00,
2013-04-28 06:20:00,68.6,62.9,30.31,East,90,0.0,0.0,82,0.00,,,0.00,WUHU21623XXSP,2013-04-28 10:20:00,
2013-04-28 06:25:00,68.6,62.9,30.31,East,90,0.0,0.0,82,0.00,,,0.00,WUHU21623XXSP,2013-04-28 10:25:00,
2013-04-28 06:30:00,68.6,62.9,30.32,ESE,112,0.0,0.0,82,0.00,,,0.00,WUHU21623XXSP,2013-04-28 10:30:00,
2013-04-28 06:35:00,68.6,62.9,30.31,ESE,112,0.0,0.0,82,0.00,,,0.00,WUHU21623XXSP,2013-04-28 10:35:00,
2013-04-28 06:40:00,68.6,62.9,30.32,ESE,112,0.0,0.0,82,0.00,,,0.00,WUHU21623XXSP,2013-04-28 10:40:00,
2013-04-28 06:45:00,68.6,62.9,30.32,ESE,112,0.0,0.0,82,0.00,,,0.00,WUHU21623XXSP,2013-04-28 10:45:00,
2013-04-28 06:50:00,68.6,62.9,30.32,SSE,157,0.0,0.0,82,0.00,,,0.00,WUHU21623XXSP,2013-04-28 10:50:00,
2013-04-28 06:55:00,68.6,62.9,30.32,SE,135,0.0,0.0,82,0.00,,,0.00,WUHU21623XXSP,2013-04-28 10:55:00,
2013-04-28 07:00:00,68.4,62.7,30.32,ESE,112,0.0,0.0,82,0.00,,,0.00,WUHU21623XXSP,2013-04-28 11:00:00,
2013-04-28 07:05:00,68.6,63.3,30.32,ESE,112,0.0,0.0,83,0.00,,,0.00,WUHU21623XXSP,2013-04-28 11:05:00,
2013-04-28 07:10:00,68.6,63.3,30.32,SE,135,0.0,0.0,83,0.00,,,0.00,WUHU21623XXSP,2013-04-28 11:10:00,
2013-04-28 07:15:00,68.6,63.3,30.32,SE,135,0.0,0.0,83,0.00,,,0.00,WUHU21623XXSP,2013-04-28 11:15:00,
2013-04-28 07:20:00,68.6,63.3,30.33,SE,135,0.0,0.0,83,0.00,,,0.00,WUHU21623XXSP,2013-04-28 11:20:00,
2013-04-28 07:25:00,69.0,63.7,30.33,ESE,112,0.0,0.0,83,0.00,,,0.00,WUHU21623XXSP,2013-04-28 11:25:00,
2013-04-28 07:30:00,69.0,63.7,30.33,SE,135,0.0,0.0,83,0.00,,,0.00,WUHU21623XXSP,2013-04-28 11:30:00,
2013-04-28 07:35:00,69.2,63.9,30.33,ESE,112,0.0,0.0,83,0.00,,,0.00,WUHU21623XXSP,2013-04-28 11:35:00,
2013-04-28 07:40:00,69.3,63.6,30.34,ESE,112,0.0,0.0,82,0.00,,,0.00,WUHU21623XXSP,2013-04-28 11:40:00,
2013-04-28 07:45:00,69.5,63.8,30.34,East,90,0.0,0.0,82,0.00,,,0.00,WUHU21623XXSP,2013-04-28 11:45:00,
2013-04-28 07:50:00,69.7,64.0,30.34,SE,135,0.0,0.0,82,0.00,,,0.00,WUHU21623XXSP,2013-04-28 11:50:00,
2013-04-28 07:56:00,70.2,64.2,30.34,ESE,112,0.0,0.0,81,0.00,,,0.00,WUHU21623XXSP,2013-04-28 11:56:00,
2013-04-28 08:01:00,72.0,65.6,30.34,SE,135,0.0,0.0,80,0.00,,,0.00,WUHU21623XXSP,2013-04-28 12:01:00,
2013-04-28 08:06:00,74.6,66.7,30.34,ESE,112,0.0,0.0,76,0.00,,,0.00,WUHU21623XXSP,2013-04-28 12:06:00,
2013-04-28 08:11:00,76.2,67.5,30.34,ESE,112,0.0,0.0,74,0.00,,,0.00,WUHU21623XXSP,2013-04-28 12:11:00,
2013-04-28 08:16:00,77.6,67.7,30.34,SE,135,0.0,0.0,71,0.00,,,0.00,WUHU21623XXSP,2013-04-28 12:16:00,
2013-04-28 08:21:00,78.0,67.2,30.34,ESE,112,0.0,0.0,69,0.00,,,0.00,WUHU21623XXSP,2013-04-28 12:21:00,
2013-04-28 08:26:00,78.2,67.0,30.34,ENE,67,0.0,0.0,68,0.00,,,0.00,WUHU21623XXSP,2013-04-28 12:26:00,
2013-04-28 08:31:00,78.2,66.6,30.35,East,90,0.0,0.0,67,0.00,,,0.00,WUHU21623XXSP,2013-04-28 12:31:00,
2013-04-28 08:36:00,77.6,66.0,30.35,SE,135,0.0,0.0,67,0.00,,,0.00,WUHU21623XXSP,2013-04-28 12:36:00,
2013-04-28 08:41:00,78.0,66.4,30.35,ESE,112,0.0,0.0,67,0.00,,,0.00,WUHU21623XXSP,2013-04-28 12:41:00,
2013-04-28 08:46:00,77.6,66.0,30.35,ESE,112,0.0,0.0,67,0.00,,,0.00,WUHU21623XXSP,2013-04-28 12:46:00,
2013-04-28 08:51:00,77.8,66.6,30.35,SSE,157,0.0,0.0,68,0.00,,,0.00,WUHU21623XXSP,2013-04-28 12:51:00,
2013-04-28 08:56:00,78.0,66.4,30.35,ESE,112,0.0,0.0,67,0.00,,,0.00,WUHU21623XXSP,2013-04-28 12:56:00,
2013-04-28 09:01:00,78.0,66.4,30.35,SE,135,0.0,0.0,67,0.00,,,0.00,WUHU21623XXSP,2013-04-28 13:01:00,
2013-04-28 09:06:00,78.2,66.1,30.35,ESE,112,0.0,0.0,66,0.00,,,0.00,WUHU21623XXSP,2013-04-28 13:06:00,
2013-04-28 09:11:00,78.3,66.2,30.35,ESE,112,0.0,0.0,66,0.00,,,0.00,WUHU21623XXSP,2013-04-28 13:11:00,
2013-04-28 09:16:00,78.3,66.2,30.35,ESE,112,0.0,0.0,66,0.00,,,0.00,WUHU21623XXSP,2013-04-28 13:16:00,
2013-04-28 09:21:00,78.5,66.4,30.35,ESE,112,0.0,0.0,66,0.00,,,0.00,WUHU21623XXSP,2013-04-28 13:21:00,
2013-04-28 09:26:00,78.7,66.2,30.35,ESE,112,0.0,0.0,65,0.00,,,0.00,WUHU21623XXSP,2013-04-28 13:26:00,
2013-04-28 09:31:00,78.7,65.7,30.35,ESE,112,0.0,0.0,64,0.00,,,0.00,WUHU21623XXSP,2013-04-28 13:31:00,
2013-04-28 09:36:00,78.9,65.9,30.35,SE,135,0.0,0.0,64,0.00,,,0.00,WUHU21623XXSP,2013-04-28 13:36:00,
2013-04-28 09:41:00,79.2,66.2,30.35,ENE,67,0.0,0.0,64,0.00,,,0.00,WUHU21623XXSP,2013-04-28 13:41:00,
2013-04-28 09:46:00,79.6,66.1,30.35,SE,135,0.0,0.0,63,0.00,,,0.00,WUHU21623XXSP,2013-04-28 13:46:00,
2013-04-28 09:51:00,80.1,65.7,30.35,ESE,112,0.0,0.0,61,0.00,,,0.00,WUHU21623XXSP,2013-04-28 13:51:00,
2013-04-28 09:56:00,80.3,65.9,30.36,East,90,0.0,0.0,61,0.00,,,0.00,WUHU21623XXSP,2013-04-28 13:56:00,
2013-04-28 10:01:00,80.7,65.8,30.35,ENE,67,0.0,0.0,60,0.00,,,0.00,WUHU21623XXSP,2013-04-28 14:01:00,
2013-04-28 10:06:00,81.0,65.6,30.35,SSE,157,0.0,0.0,59,0.00,,,0.00,WUHU21623XXSP,2013-04-28 14:06:00,
2013-04-28 10:11:00,81.2,66.2,30.36,South,180,0.0,0.0,60,0.00,,,0.00,WUHU21623XXSP,2013-04-28 14:11:00,
2013-04-28 10:16:00,81.8,65.8,30.36,SSE,157,0.0,0.0,58,0.00,,,0.00,WUHU21623XXSP,2013-04-28 14:16:00,
2013-04-28 10:22:00,82.1,66.1,30.36,SE,135,0.0,0.0,58,0.00,,,0.00,WUHU21623XXSP,2013-04-28 14:22:00,
2013-04-28 10:27:00,82.8,66.7,30.36,SE,135,0.0,0.0,58,0.00,,,0.00,WUHU21623XXSP,2013-04-28 14:27:00,
2013-04-28 10:32:00,83.0,66.4,30.37,ENE,67,0.0,0.0,57,0.00,,,0.00,WUHU21623XXSP,2013-04-28 14:32:00,
2013-04-28 10:37:00,83.2,66.1,30.37,NE,45,0.0,0.0,56,0.00,,,0.00,WUHU21623XXSP,2013-04-28 14:37:00,
2013-04-28 10:42:00,83.2,66.1,30.37,ESE,112,0.0,0.0,56,0.00,,,0.00,WUHU21623XXSP,2013-04-28 14:42:00,
2013-04-28 10:47:00,82.7,66.1,30.37,ESE,112,0.0,0.0,57,0.00,,,0.00,WUHU21623XXSP,2013-04-28 14:47:00,
2013-04-28 10:52:00,82.8,66.2,30.36,ESE,112,0.0,0.0,57,0.00,,,0.00,WUHU21623XXSP,2013-04-28 14:52:00,
2013-04-28 10:57:00,83.0,65.9,30.37,SE,135,0.0,0.0,56,0.00,,,0.00,WUHU21623XXSP,2013-04-28 14:57:00,
2013-04-28 11:02:00,83.4,65.7,30.36,ESE,112,0.0,0.0,55,0.00,,,0.00,WUHU21623XXSP,2013-04-28 15:02:00,
2013-04-28 11:07:00,83.4,65.2,30.36,East,90,0.0,0.0,54,0.00,,,0.00,WUHU21623XXSP,2013-04-28 15:07:00,
2013-04-28 11:12:00,83.2,65.6,30.35,SW,225,0.0,0.0,55,0.00,,,0.00,WUHU21623XXSP,2013-04-28 15:12:00,
2013-04-28 11:17:00,83.6,65.4,30.35,SE,135,0.0,0.0,54,0.00,,,0.00,WUHU21623XXSP,2013-04-28 15:17:00,
2013-04-28 11:22:00,83.7,65.5,30.36,ENE,67,0.0,0.0,54,0.00,,,0.00,WUHU21623XXSP,2013-04-28 15:22:00,
2013-04-28 11:27:00,83.7,65.5,30.35,ESE,112,0.0,0.0,54,0.00,,,0.00,WUHU21623XXSP,2013-04-28 15:27:00,
2013-04-28 11:32:00,83.6,65.4,30.35,ESE,112,0.0,0.0,54,0.00,,,0.00,WUHU21623XXSP,2013-04-28 15:32:00,
2013-04-28 11:37:00,83.4,65.2,30.35,ESE,112,0.0,0.0,54,0.00,,,0.00,WUHU21623XXSP,2013-04-28 15:37:00,
2013-04-28 11:42:00,83.6,64.8,30.35,ESE,112,0.0,0.0,53,0.00,,,0.00,WUHU21623XXSP,2013-04-28 15:42:00,
2013-04-28 11:47:00,83.4,64.1,30.34,ESE,112,0.0,0.0,52,0.00,,,0.00,WUHU21623XXSP,2013-04-28 15:47:00,
2013-04-28 11:52:00,83.6,64.8,30.34,ESE,112,0.0,0.0,53,0.00,,,0.00,WUHU21623XXSP,2013-04-28 15:52:00,
2013-04-28 11:57:00,83.9,64.6,30.34,SSE,157,0.0,0.0,52,0.00,,,0.00,WUHU21623XXSP,2013-04-28 15:57:00,
2013-04-28 12:02:00,84.1,64.7,30.34,SE,135,0.0,0.0,52,0.00,,,0.00,WUHU21623XXSP,2013-04-28 16:02:00,
2013-04-28 12:07:00,84.1,64.7,30.34,ESE,112,0.0,0.0,52,0.00,,,0.00,WUHU21623XXSP,2013-04-28 16:07:00,
2013-04-28 12:12:00,84.6,65.2,30.34,SE,135,0.0,0.0,52,0.00,,,0.00,WUHU21623XXSP,2013-04-28 16:12:00,
2013-04-28 12:17:00,84.6,64.6,30.34,North,0,0.0,0.0,51,0.00,,,0.00,WUHU21623XXSP,2013-04-28 16:17:00,
2013-04-28 12:22:00,84.3,64.4,30.34,SE,135,0.0,0.0,51,0.00,,,0.00,WUHU21623XXSP,2013-04-28 16:22:00,
2013-04-28 12:27:00,84.6,64.6,30.33,East,90,0.0,0.0,51,0.00,,,0.00,WUHU21623XXSP,2013-04-28 16:27:00,
2013-04-28 12:32:00,85.2,65.2,30.33,NNE,22,0.0,0.0,51,0.00,,,0.00,WUHU21623XXSP,2013-04-28 16:32:00,
2013-04-28 12:37:00,85.4,64.8,30.33,ESE,112,0.0,0.0,50,0.00,,,0.00,WUHU21623XXSP,2013-04-28 16:37:00,
2013-04-28 12:42:00,85.5,64.9,30.32,SE,135,0.0,0.0,50,0.00,,,0.00,WUHU21623XXSP,2013-04-28 16:42:00,
2013-04-28 12:47:00,85.7,64.5,30.32,East,90,0.0,0.0,49,0.00,,,0.00,WUHU21623XXSP,2013-04-28 16:47:00,
2013-04-28 12:52:00,85.7,63.9,30.32,ENE,67,0.0,0.0,48,0.00,,,0.00,WUHU21623XXSP,2013-04-28 16:52:00,
2013-04-28 12:57:00,85.7,64.5,30.32,SE,135,0.0,0.0,49,0.00,,,0.00,WUHU21623XXSP,2013-04-28 16:57:00,
2013-04-28 13:02:00,85.9,64.0,30.31,ESE,112,0.0,0.0,48,0.00,,,0.00,WUHU21623XXSP,2013-04-28 17:02:00,
2013-04-28 13:07:00,86.1,64.2,30.31,East,90,0.0,0.0,48,0.00,,,0.00,WUHU21623XXSP,2013-04-28 17:07:00,
2013-04-28 13:12:00,86.1,63.6,30.31,SE,135,0.0,0.0,47,0.00,,,0.00,WUHU21623XXSP,2013-04-28 17:12:00,
2013-04-28 13:17:00,85.5,63.1,30.30,East,90,0.0,0.0,47,0.00,,,0.00,WUHU21623XXSP,2013-04-28 17:17:00,
2013-04-28 13:22:00,86.1,63.6,30.30,ESE,112,0.0,0.0,47,0.00,,,0.00,WUHU21623XXSP,2013-04-28 17:22:00,
2013-04-28 13:27:00,86.1,63.0,30.30,ESE,112,0.0,0.0,46,0.00,,,0.00,WUHU21623XXSP,2013-04-28 17:27:00,
2013-04-28 13:32:00,86.6,62.8,30.30,ESE,112,0.0,0.0,45,0.00,,,0.00,WUHU21623XXSP,2013-04-28 17:32:00,
2013-04-28 13:37:00,87.3,63.4,30.30,SE,135,0.0,0.0,45,0.00,,,0.00,WUHU21623XXSP,2013-04-28 17:37:00,
2013-04-28 13:42:00,87.9,63.3,30.30,SE,135,0.0,0.0,44,0.00,,,0.00,WUHU21623XXSP,2013-04-28 17:42:00,
2013-04-28 13:47:00,88.2,63.6,30.30,ESE,112,0.0,0.0,44,0.00,,,0.00,WUHU21623XXSP,2013-04-28 17:47:00,
2013-04-28 13:52:00,89.0,63.6,30.30,NE,45,0.0,0.0,43,0.00,,,0.00,WUHU21623XXSP,2013-04-28 17:52:00,
2013-04-28 13:57:00,89.0,62.9,30.30,ESE,112,0.0,0.0,42,0.00,,,0.00,WUHU21623XXSP,2013-04-28 17:57:00,
2013-04-28 14:02:00,88.8,62.8,30.30,ENE,67,0.0,0.0,42,0.00,,,0.00,WUHU21623XXSP,2013-04-28 18:02:00,
2013-04-28 14:07:00,88.2,62.2,30.29,ENE,67,0.0,0.0,42,0.00,,,0.00,WUHU21623XXSP,2013-04-28 18:07:00,
2013-04-28 14:12:00,88.4,62.4,30.29,ESE,112,0.0,0.0,42,0.00,,,0.00,WUHU21623XXSP,2013-04-28 18:12:00,
2013-04-28 14:17:00,88.6,62.6,30.29,SE,135,0.0,0.0,42,0.00,,,0.00,WUHU21623XXSP,2013-04-28 18:17:00,
2013-04-28 14:22:00,88.2,62.2,30.29,East,90,0.0,0.0,42,0.00,,,0.00,WUHU21623XXSP,2013-04-28 18:22:00,
2013-04-28 14:28:00,87.7,62.5,30.28,ENE,67,0.0,0.0,43,0.00,,,0.00,WUHU21623XXSP,2013-04-28 18:28:00,
2013-04-28 14:33:00,87.9,62.6,30.28,East,90,0.0,0.0,43,0.00,,,0.00,WUHU21623XXSP,2013-04-28 18:33:00,
2013-04-28 14:38:00,88.6,62.6,30.28,SE,135,0.0,0.0,42,0.00,,,0.00,WUHU21623XXSP,2013-04-28 18:38:00,
2013-04-28 14:43:00,87.5,62.3,30.28,ENE,67,0.0,0.0,43,0.00,,,0.00,WUHU21623XXSP,2013-04-28 18:43:00,
2013-04-28 14:48:00,86.8,62.3,30.27,ESE,112,0.0,0.0,44,0.00,,,0.00,WUHU21623XXSP,2013-04-28 18:48:00,
2013-04-28 14:53:00,86.6,62.1,30.27,ESE,112,0.0,0.0,44,0.00,,,0.00,WUHU21623XXSP,2013-04-28 18:53:00,
2013-04-28 14:58:00,86.1,62.3,30.27,ESE,112,0.0,0.0,45,0.00,,,0.00,WUHU21623XXSP,2013-04-28 18:58:00,
2013-04-28 15:03:00,86.8,63.0,30.27,ESE,112,0.0,0.0,45,0.00,,,0.00,WUHU21623XXSP,2013-04-28 19:03:00,
2013-04-28 15:08:00,87.0,63.2,30.27,East,90,0.0,0.0,45,0.00,,,0.00,WUHU21623XXSP,2013-04-28 19:08:00,
2013-04-28 15:13:00,87.0,61.8,30.26,ESE,112,0.0,0.0,43,0.00,,,0.00,WUHU21623XXSP,2013-04-28 19:13:00,
2013-04-28 15:18:00,86.4,61.9,30.26,SE,135,0.0,0.0,44,0.00,,,0.00,WUHU21623XXSP,2013-04-28 19:18:00,
2013-04-28 15:23:00,87.3,62.8,30.26,East,90,0.0,0.0,44,0.00,,,0.00,WUHU21623XXSP,2013-04-28 19:23:00,
2013-04-28 15:28:00,87.2,62.0,30.26,ESE,112,0.0,0.0,43,0.00,,,0.00,WUHU21623XXSP,2013-04-28 19:28:00,
2013-04-28 15:33:00,86.8,61.6,30.26,ESE,112,0.0,0.0,43,0.00,,,0.00,WUHU21623XXSP,2013-04-28 19:33:00,
2013-04-28 15:38:00,86.4,61.9,30.26,SE,135,0.0,0.0,44,0.00,,,0.00,WUHU21623XXSP,2013-04-28 19:38:00,
2013-04-28 15:43:00,87.5,62.9,30.26,SSE,157,0.0,0.0,44,0.00,,,0.00,WUHU21623XXSP,2013-04-28 19:43:00,
2013-04-28 15:48:00,88.2,63.6,30.25,SE,135,0.0,0.0,44,0.00,,,0.00,WUHU21623XXSP,2013-04-28 19:48:00,
2013-04-28 15:53:00,88.8,62.8,30.25,SE,135,0.0,0.0,42,0.00,,,0.00,WUHU21623XXSP,2013-04-28 19:53:00,
2013-04-28 15:58:00,88.8,62.1,30.25,NE,45,0.0,0.0,41,0.00,,,0.00,WUHU21623XXSP,2013-04-28 19:58:00,
2013-04-28 16:03:00,87.9,61.9,30.25,NE,45,0.0,0.0,42,0.00,,,0.00,WUHU21623XXSP,2013-04-28 20:03:00,
2013-04-28 16:08:00,87.2,62.0,30.24,SE,135,0.0,0.0,43,0.00,,,0.00,WUHU21623XXSP,2013-04-28 20:08:00,
2013-04-28 16:13:00,87.2,62.7,30.24,NNE,22,0.0,0.0,44,0.00,,,0.00,WUHU21623XXSP,2013-04-28 20:13:00,
2013-04-28 16:18:00,87.5,62.3,30.24,ENE,67,0.0,0.0,43,0.00,,,0.00,WUHU21623XXSP,2013-04-28 20:18:00,
2013-04-28 16:23:00,87.3,62.8,30.25,SE,135,0.0,0.0,44,0.00,,,0.00,WUHU21623XXSP,2013-04-28 20:23:00,
2013-04-28 16:28:00,86.8,64.3,30.24,West,270,0.0,0.0,47,0.00,,,0.00,WUHU21623XXSP,2013-04-28 20:28:00,
2013-04-28 16:33:00,85.7,64.5,30.24,West,270,0.0,0.0,49,0.00,,,0.00,WUHU21623XXSP,2013-04-28 20:33:00,
2013-04-28 16:38:00,85.7,65.7,30.24,WNW,292,0.0,0.0,51,0.00,,,0.00,WUHU21623XXSP,2013-04-28 20:38:00,
2013-04-28 16:43:00,86.6,66.5,30.24,West,270,0.0,0.0,51,0.00,,,0.00,WUHU21623XXSP,2013-04-28 20:43:00,
2013-04-28 16:48:00,86.1,66.0,30.24,WNW,292,0.0,0.0,51,0.00,,,0.00,WUHU21623XXSP,2013-04-28 20:48:00,
2013-04-28 16:54:00,86.4,66.3,30.23,WNW,292,0.0,0.0,51,0.00,,,0.00,WUHU21623XXSP,2013-04-28 20:54:00,
2013-04-28 16:59:00,86.4,66.9,30.23,West,270,0.0,0.0,52,0.00,,,0.00,WUHU21623XXSP,2013-04-28 20:59:00,
2013-04-28 17:04:00,86.4,66.9,30.23,West,270,0.0,0.0,52,0.00,,,0.00,WUHU21623XXSP,2013-04-28 21:04:00,
2013-04-28 17:09:00,86.1,66.6,30.23,West,270,0.0,0.0,52,0.00,,,0.00,WUHU21623XXSP,2013-04-28 21:09:00,
2013-04-28 17:14:00,85.5,66.6,30.24,West,270,0.0,0.0,53,0.00,,,0.00,WUHU21623XXSP,2013-04-28 21:14:00,
2013-04-28 17:19:00,85.0,66.1,30.23,WNW,292,0.0,0.0,53,0.00,,,0.00,WUHU21623XXSP,2013-04-28 21:19:00,
2013-04-28 17:24:00,84.6,66.9,30.24,West,270,0.0,0.0,55,0.00,,,0.00,WUHU21623XXSP,2013-04-28 21:24:00,
2013-04-28 17:29:00,84.1,66.9,30.24,SW,225,0.0,0.0,56,0.00,,,0.00,WUHU21623XXSP,2013-04-28 21:29:00,
2013-04-28 17:34:00,83.7,67.1,30.24,WNW,292,0.0,0.0,57,0.00,,,0.00,WUHU21623XXSP,2013-04-28 21:34:00,
2013-04-28 17:39:00,83.2,67.1,30.24,WNW,292,0.0,0.0,58,0.00,,,0.00,WUHU21623XXSP,2013-04-28 21:39:00,
2013-04-28 17:44:00,82.5,67.0,30.24,West,270,0.0,0.0,59,0.00,,,0.00,WUHU21623XXSP,2013-04-28 21:44:00,
2013-04-28 17:49:00,81.8,67.3,30.24,West,270,0.0,0.0,61,0.00,,,0.00,WUHU21623XXSP,2013-04-28 21:49:00,
2013-04-28 17:54:00,81.8,67.8,30.24,WNW,292,0.0,0.0,62,0.00,,,0.00,WUHU21623XXSP,2013-04-28 21:54:00,
2013-04-28 17:59:00,82.3,68.2,30.24,WNW,292,0.0,0.0,62,0.00,,,0.00,WUHU21623XXSP,2013-04-28 21:59:00,
2013-04-28 18:04:00,83.0,68.9,30.23,WNW,292,0.0,0.0,62,0.00,,,0.00,WUHU21623XXSP,2013-04-28 22:04:00,
2013-04-28 18:09:00,83.0,67.9,30.22,NW,315,0.0,0.0,60,0.00,,,0.00,WUHU21623XXSP,2013-04-28 22:09:00,
2013-04-28 18:14:00,82.8,67.7,30.22,WNW,292,0.0,0.0,60,0.00,,,0.00,WUHU21623XXSP,2013-04-28 22:14:00,
2013-04-28 18:19:00,82.8,68.2,30.23,WSW,247,0.0,0.0,61,0.00,,,0.00,WUHU21623XXSP,2013-04-28 22:19:00,
2013-04-28 18:24:00,83.0,68.4,30.22,West,270,0.0,0.0,61,0.00,,,0.00,WUHU21623XXSP,2013-04-28 22:24:00,
2013-04-28 18:29:00,83.0,67.9,30.22,West,270,0.0,0.0,60,0.00,,,0.00,WUHU21623XXSP,2013-04-28 22:29:00,
2013-04-28 18:34:00,83.0,67.4,30.22,NW,315,0.0,0.0,59,0.00,,,0.00,WUHU21623XXSP,2013-04-28 22:34:00,
2013-04-28 18:39:00,82.8,67.7,30.22,NW,315,0.0,0.0,60,0.00,,,0.00,WUHU21623XXSP,2013-04-28 22:39:00,
2013-04-28 18:44:00,81.9,66.9,30.22,NW,315,0.0,0.0,60,0.00,,,0.00,WUHU21623XXSP,2013-04-28 22:44:00,
2013-04-28 18:49:00,81.2,66.7,30.22,West,270,0.0,0.0,61,0.00,,,0.00,WUHU21623XXSP,2013-04-28 22:49:00,
2013-04-28 18:54:00,81.0,67.0,30.22,WNW,292,0.0,0.0,62,0.00,,,0.00,WUHU21623XXSP,2013-04-28 22:54:00,
2013-04-28 18:59:00,80.3,66.8,30.23,WNW,292,0.0,0.0,63,0.00,,,0.00,WUHU21623XXSP,2013-04-28 22:59:00,
2013-04-28 19:04:00,80.3,67.3,30.22,NW,315,0.0,0.0,64,0.00,,,0.00,WUHU21623XXSP,2013-04-28 23:04:00,
2013-04-28 19:09:00,81.2,67.7,30.22,WNW,292,0.0,0.0,63,0.00,,,0.00,WUHU21623XXSP,2013-04-28 23:09:00,
2013-04-28 19:14:00,82.1,68.5,30.22,WNW,292,0.0,0.0,63,0.00,,,0.00,WUHU21623XXSP,2013-04-28 23:14:00,
2013-04-28 19:19:00,81.8,67.3,30.22,WNW,292,0.0,0.0,61,0.00,,,0.00,WUHU21623XXSP,2013-04-28 23:19:00,
2013-04-28 19:24:00,81.2,66.7,30.23,West,270,0.0,0.0,61,0.00,,,0.00,WUHU21623XXSP,2013-04-28 23:24:00,
2013-04-28 19:30:00,80.7,66.7,30.23,WNW,292,0.0,0.0,62,0.00,,,0.00,WUHU21623XXSP,2013-04-28 23:30:00,
2013-04-28 19:35:00,79.8,66.3,30.23,WNW,292,0.0,0.0,63,0.00,,,0.00,WUHU21623XXSP,2013-04-28 23:35:00,
2013-04-28 19:39:00,79.1,66.1,30.22,WNW,292,0.0,0.0,64,0.00,,,0.00,WUHU21623XXSP,2013-04-28 23:39:00,
2013-04-28 19:44:00,78.5,66.0,30.22,WNW,292,0.0,0.0,65,0.00,,,0.00,WUHU21623XXSP,2013-04-28 23:44:00,
2013-04-28 19:50:00,78.0,65.5,30.22,WNW,292,0.0,0.0,65,0.00,,,0.00,WUHU21623XXSP,2013-04-28 23:50:00,
2013-04-28 19:55:00,77.6,65.6,30.22,West,270,0.0,0.0,66,0.00,,,0.00,WUHU21623XXSP,2013-04-28 23:55:00,
2013-04-28 20:00:00,77.1,65.5,30.22,NW,315,0.0,0.0,67,0.00,,,0.00,WUHU21623XXSP,2013-04-29 00:00:00,
2013-04-28 20:05:00,76.9,65.8,30.23,WNW,292,0.0,0.0,68,0.00,,,0.00,WUHU21623XXSP,2013-04-29 00:05:00,
2013-04-28 20:10:00,76.5,65.8,30.23,NW,315,0.0,0.0,69,0.00,,,0.00,WUHU21623XXSP,2013-04-29 00:10:00,
2013-04-28 20:15:00,76.5,65.8,30.23,NW,315,0.0,0.0,69,0.00,,,0.00,WUHU21623XXSP,2013-04-29 00:15:00,
2013-04-28 20:20:00,76.2,65.5,30.23,North,0,0.0,0.0,69,0.00,,,0.00,WUHU21623XXSP,2013-04-29 00:20:00,
2013-04-28 20:25:00,76.0,65.3,30.23,North,0,0.0,0.0,69,0.00,,,0.00,WUHU21623XXSP,2013-04-29 00:25:00,
2013-04-28 20:30:00,75.8,65.5,30.23,North,0,0.0,0.0,70,0.00,,,0.00,WUHU21623XXSP,2013-04-29 00:30:00,
2013-04-28 20:35:00,75.8,65.5,30.23,NNW,337,0.0,0.0,70,0.00,,,0.00,WUHU21623XXSP,2013-04-29 00:35:00,
2013-04-28 20:40:00,75.8,65.5,30.23,NW,315,0.0,0.0,70,0.00,,,0.00,WUHU21623XXSP,2013-04-29 00:40:00,
2013-04-28 20:45:00,75.8,65.5,30.24,NW,315,0.0,0.0,70,0.00,,,0.00,WUHU21623XXSP,2013-04-29 00:45:00,
2013-04-28 20:50:00,75.8,65.5,30.23,WNW,292,0.0,0.0,70,0.00,,,0.00,WUHU21623XXSP,2013-04-29 00:50:00,
2013-04-28 20:55:00,75.8,65.5,30.23,WNW,292,0.0,0.0,70,0.00,,,0.00,WUHU21623XXSP,2013-04-29 00:55:00,
2013-04-28 21:00:00,75.8,65.5,30.24,WNW,292,0.0,0.0,70,0.00,,,0.00,WUHU21623XXSP,2013-04-29 01:00:00,
2013-04-28 21:05:00,75.6,65.3,30.23,WNW,292,0.0,0.0,70,0.00,,,0.00,WUHU21623XXSP,2013-04-29 01:05:00,
2013-04-28 21:10:00,75.6,65.3,30.23,WNW,292,0.0,0.0,70,0.00,,,0.00,WUHU21623XXSP,2013-04-29 01:10:00,
2013-04-28 21:15:00,75.6,65.3,30.23,WNW,292,0.0,0.0,70,0.00,,,0.00,WUHU21623XXSP,2013-04-29 01:15:00,
2013-04-28 21:20:00,75.6,65.3,30.23,WNW,292,0.0,0.0,70,0.00,,,0.00,WUHU21623XXSP,2013-04-29 01:20:00,
2013-04-28 21:25:00,75.6,65.3,30.23,WNW,292,0.0,0.0,70,0.00,,,0.00,WUHU21623XXSP,2013-04-29 01:25:00,
2013-04-28 21:30:00,75.5,65.2,30.24,WNW,292,0.0,0.0,70,0.00,,,0.00,WUHU21623XXSP,2013-04-29 01:30:00,
2013-04-28 21:35:00,75.3,65.0,30.23,WNW,292,0.0,0.0,70,0.00,,,0.00,WUHU21623XXSP,2013-04-29 01:35:00,
2013-04-28 21:40:00,75.1,64.8,30.24,WNW,292,0.0,0.0,70,0.00,,,0.00,WUHU21623XXSP,2013-04-29 01:40:00,
2013-04-28 21:45:00,75.1,65.2,30.24,WNW,292,0.0,0.0,71,0.00,,,0.00,WUHU21623XXSP,2013-04-29 01:45:00,
2013-04-28 21:50:00,75.1,65.2,30.24,WNW,292,0.0,0.0,71,0.00,,,0.00,WUHU21623XXSP,2013-04-29 01:50:00,
2013-04-28 21:55:00,75.1,65.2,30.25,NNW,337,0.0,0.0,71,0.00,,,0.00,WUHU21623XXSP,2013-04-29 01:55:00,
2013-04-28 22:00:00,75.1,65.2,30.25,North,0,0.0,0.0,71,0.00,,,0.00,WUHU21623XXSP,2013-04-29 02:00:00,
2013-04-28 22:05:00,75.3,65.4,30.25,North,0,0.0,0.0,71,0.00,,,0.00,WUHU21623XXSP,2013-04-29 02:05:00,
2013-04-28 22:10:00,75.3,65.4,30.25,North,0,0.0,0.0,71,0.00,,,0.00,WUHU21623XXSP,2013-04-29 02:10:00,
2013-04-28 22:15:00,75.3,65.4,30.25,North,0,0.0,0.0,71,0.00,,,0.00,WUHU21623XXSP,2013-04-29 02:15:00,
2013-04-28 22:20:00,75.5,65.6,30.25,North,0,0.0,0.0,71,0.00,,,0.00,WUHU21623XXSP,2013-04-29 02:20:00,
2013-04-28 22:25:00,75.5,65.6,30.26,North,0,0.0,0.0,71,0.00,,,0.00,WUHU21623XXSP,2013-04-29 02:25:00,
2013-04-28 22:30:00,75.5,65.6,30.27,NNE,22,0.0,0.0,71,0.00,,,0.00,WUHU21623XXSP,2013-04-29 02:30:00,
2013-04-28 22:35:00,75.6,66.1,30.26,NNE,22,0.0,0.0,72,0.00,,,0.00,WUHU21623XXSP,2013-04-29 02:35:00,
2013-04-28 22:40:00,75.5,66.4,30.26,NNE,22,0.0,0.0,73,0.00,,,0.00,WUHU21623XXSP,2013-04-29 02:40:00,
2013-04-28 22:45:00,75.5,66.4,30.26,ENE,67,0.0,0.0,73,0.00,,,0.00,WUHU21623XXSP,2013-04-29 02:45:00,
2013-04-28 22:50:00,75.3,66.2,30.26,ENE,67,0.0,0.0,73,0.00,,,0.00,WUHU21623XXSP,2013-04-29 02:50:00,
2013-04-28 22:55:00,75.3,66.2,30.26,East,90,0.0,0.0,73,0.00,,,0.00,WUHU21623XXSP,2013-04-29 02:55:00,
2013-04-28 23:00:00,75.1,66.0,30.26,SE,135,0.0,0.0,73,0.00,,,0.00,WUHU21623XXSP,2013-04-29 03:00:00,
2013-04-28 23:05:00,75.1,66.0,30.27,ESE,112,0.0,0.0,73,0.00,,,0.00,WUHU21623XXSP,2013-04-29 03:05:00,
2013-04-28 23:10:00,75.1,66.0,30.27,ENE,67,0.0,0.0,73,0.00,,,0.00,WUHU21623XXSP,2013-04-29 03:10:00,
2013-04-28 23:15:00,74.9,65.8,30.27,East,90,0.0,0.0,73,0.00,,,0.00,WUHU21623XXSP,2013-04-29 03:15:00,
2013-04-28 23:20:00,74.9,65.8,30.27,East,90,0.0,0.0,73,0.00,,,0.00,WUHU21623XXSP,2013-04-29 03:20:00,
2013-04-28 23:25:00,74.9,65.8,30.27,ESE,112,0.0,0.0,73,0.00,,,0.00,WUHU21623XXSP,2013-04-29 03:25:00,
2013-04-28 23:30:00,74.9,66.2,30.27,East,90,0.0,0.0,74,0.00,,,0.00,WUHU21623XXSP,2013-04-29 03:30:00,
2013-04-28 23:35:00,74.7,66.4,30.27,East,90,0.0,0.0,75,0.00,,,0.00,WUHU21623XXSP,2013-04-29 03:35:00,
2013-04-28 23:40:00,74.6,66.3,30.27,NE,45,0.0,0.0,75,0.00,,,0.00,WUHU21623XXSP,2013-04-29 03:40:00,
2013-04-28 23:45:00,74.4,66.5,30.27,ENE,67,0.0,0.0,76,0.00,,,0.00,WUHU21623XXSP,2013-04-29 03:45:00,
2013-04-28 23:50:00,74.4,66.5,30.27,NE,45,0.0,0.0,76,0.00,,,0.00,WUHU21623XXSP,2013-04-29 03:50:00,
2013-04-28 23:56:00,74.0,66.5,30.27,NE,45,0.0,0.0,77,0.00,,,0.00,WUHU21623XXSP,2013-04-29 03:56:00,